| time (UTC) | temp C | wind direction | speed KPH | gust KPH | rain 1hr cm | rain 24hr cm | rain mn cm | humidity % | barometer mb |
| 20260502231538 | 18 | 244 | 0.0 | 4.8 | 0.00 | 0.00 | 0.00 | 50 | 1018.6 |
| 20260502230036 | 18 | 94 | 0.0 | 3.2 | 0.00 | 0.00 | 0.00 | 52 | 1018.5 |
| 20260502224534 | 18 | 72 | 1.6 | 4.8 | 0.00 | 0.00 | 0.00 | 53 | 1018.6 |
| 20260502223035 | 18 | 263 | 0.0 | 3.2 | 0.00 | 0.00 | 0.00 | 50 | 1018.6 |
| 20260502221531 | 18 | 91 | 0.0 | 3.2 | 0.00 | 0.00 | 0.00 | 50 | 1018.7 |
| 20260502220034 | 19 | 279 | 0.0 | 3.2 | 0.00 | 0.00 | 0.00 | 49 | 1018.7 |
| 20260502214531 | 19 | 242 | 0.0 | 3.2 | 0.00 | 0.00 | 0.00 | 49 | 1018.7 |
| 20260502213027 | 20 | 257 | 0.0 | 3.2 | 0.00 | 0.00 | 0.00 | 51 | 1018.6 |
| 20260502211541 | 20 | 274 | 0.0 | 6.4 | 0.00 | 0.00 | 0.00 | 51 | 1018.7 |
| 20260502210026 | 20 | 255 | 1.6 | 9.7 | 0.00 | 0.00 | 0.00 | 52 | 1018.5 |
| 20260502204628 | 20 | 255 | 0.0 | 6.4 | 0.00 | 0.00 | 0.00 | 55 | 1018.5 |
| 20260502203024 | 20 | 182 | 0.0 | 6.4 | 0.00 | 0.00 | 0.00 | 56 | 1018.5 |
| 20260502201525 | 20 | 259 | 0.0 | 3.2 | 0.00 | 0.00 | 0.00 | 55 | 1018.4 |
| 20260502200023 | 20 | 118 | 0.0 | 1.6 | 0.00 | 0.00 | 0.00 | 56 | 1018.3 |
| 20260502194523 | 21 | 98 | 0.0 | 3.2 | 0.00 | 0.00 | 0.00 | 55 | 1018.1 |
| 20260502193023 | 21 | 108 | 0.0 | 1.6 | 0.00 | 0.00 | 0.00 | 54 | 1018.1 |
| 20260502191525 | 21 | 92 | 0.0 | 0.0 | 0.00 | 0.00 | 0.00 | 54 | 1018.0 |
| 20260502190028 | 22 | 300 | 0.0 | 1.6 | 0.00 | 0.00 | 0.00 | 53 | 1017.8 |
| 20260502184522 | 22 | 252 | 0.0 | 1.6 | 0.00 | 0.00 | 0.00 | 51 | 1017.8 |
| 20260502183020 | 23 | 244 | 0.0 | 4.8 | 0.00 | 0.00 | 0.00 | 50 | 1017.7 |
| 20260502181519 | 23 | 242 | 0.0 | 1.6 | 0.00 | 0.00 | 0.00 | 51 | 1017.6 |
| 20260502163017 | 26 | 243 | 1.6 | 4.8 | 0.00 | 0.00 | 0.00 | 41 | 1017.6 |
| 20260502161514 | 26 | 243 | 0.0 | 3.2 | 0.00 | 0.00 | 0.00 | 42 | 1017.7 |
| 20260502151507 | 28 | 233 | 0.0 | 1.6 | 0.00 | 0.00 | 0.00 | 37 | 1018.6 |
| 20260502123046 | 27 | 243 | 0.0 | 3.2 | 0.00 | 0.00 | 0.00 | 42 | 1020.9 |
| 20260502121548 | 26 | 235 | 1.6 | 4.8 | 0.00 | 0.00 | 0.00 | 42 | 1021.2 |
| 20260502114539 | 26 | 241 | 3.2 | 8.0 | 0.00 | 0.00 | 0.00 | 43 | 1021.7 |
| 20260502113036 | 25 | 246 | 0.0 | 8.0 | 0.00 | 0.00 | 0.00 | 45 | 1021.8 |
| 20260502111535 | 26 | 78 | 0.0 | 4.8 | 0.00 | 0.00 | 0.00 | 46 | 1021.9 |
| 20260502110030 | 25 | 249 | 1.6 | 6.4 | 0.00 | 0.00 | 0.00 | 48 | 1022.1 |
| 20260502104539 | 24 | 240 | 0.0 | 8.0 | 0.00 | 0.00 | 0.00 | 47 | 1022.4 |
| 20260502103025 | 24 | 107 | 0.0 | 6.4 | 0.00 | 0.00 | 0.00 | 48 | 1022.6 |
| 20260502101522 | 23 | 83 | 0.0 | 6.4 | 0.00 | 0.00 | 0.00 | 47 | 1022.8 |
| 20260502091511 | 21 | 80 | 1.6 | 9.7 | 0.00 | 0.00 | 0.00 | 50 | 1023.5 |
| 20260502080107 | 20 | 243 | 1.6 | 9.7 | 0.00 | 0.00 | 0.00 | 52 | 1024.1 |
| 20260502070046 | 17 | 227 | 0.0 | 3.2 | 0.00 | 0.00 | 0.00 | 57 | 1024.3 |
| 20260502064545 | 16 | 242 | 0.0 | 4.8 | 0.00 | 0.00 | 0.00 | 57 | 1024.3 |
| 20260502063041 | 16 | 236 | 1.6 | 8.0 | 0.00 | 0.00 | 0.00 | 57 | 1024.2 |
| 20260502061542 | 16 | 236 | 0.0 | 4.8 | 0.00 | 0.00 | 0.00 | 57 | 1024.3 |
| 20260502060036 | 14 | 235 | 0.0 | 6.4 | 0.00 | 0.00 | 0.00 | 61 | 1024.2 |
| 20260502054536 | 13 | 250 | 0.0 | 4.8 | 0.00 | 0.00 | 0.00 | 64 | 1024.3 |
| 20260502053046 | 12 | 245 | 0.0 | 4.8 | 0.00 | 0.00 | 0.00 | 64 | 1024.3 |
| 20260502051545 | 12 | 242 | 0.0 | 1.6 | 0.00 | 0.00 | 0.00 | 67 | 1024.2 |
| 20260502050042 | 11 | 247 | 0.0 | 8.0 | 0.00 | 0.00 | 0.00 | 66 | 1024.2 |
| 20260502044534 | 10 | 249 | 0.0 | 1.6 | 0.00 | 0.00 | 0.00 | 74 | 1024.0 |
| 20260502043035 | 10 | 86 | 0.0 | 0.0 | 0.00 | 0.00 | 0.00 | 76 | 1024.1 |
| 20260502041537 | 9 | 89 | 0.0 | 0.0 | 0.00 | 0.00 | 0.00 | 77 | 1024.0 |
| 20260502040033 | 9 | 89 | 0.0 | 1.6 | 0.00 | 0.00 | 0.00 | 77 | 1024.1 |
| 20260502034535 | 9 | 245 | 0.0 | 1.6 | 0.00 | 0.00 | 0.00 | 77 | 1024.2 |
| 20260502033031 | 10 | 244 | 0.0 | 0.0 | 0.00 | 0.00 | 0.00 | 77 | 1024.2 |
| 20260502031529 | 10 | 244 | 0.0 | 0.0 | 0.00 | 0.00 | 0.00 | 76 | 1024.2 |
| 20260502030028 | 10 | 245 | 0.0 | 0.0 | 0.00 | 0.00 | 0.00 | 76 | 1024.1 |
| 20260502024527 | 10 | 244 | 0.0 | 1.6 | 0.00 | 0.00 | 0.00 | 76 | 1024.3 |
| 20260502023026 | 10 | 256 | 0.0 | 0.0 | 0.00 | 0.00 | 0.00 | 73 | 1024.4 |
| 20260502021525 | 11 | 256 | 0.0 | 0.0 | 0.00 | 0.00 | 0.00 | 69 | 1024.1 |
| 20260502020024 | 11 | 256 | 0.0 | 1.6 | 0.00 | 0.00 | 0.00 | 68 | 1024.0 |
| 20260502014524 | 11 | 256 | 0.0 | 1.6 | 0.00 | 0.00 | 0.00 | 67 | 1024.1 |
| 20260502013022 | 11 | 256 | 0.0 | 1.6 | 0.00 | 0.00 | 0.00 | 67 | 1024.2 |
| 20260502011542 | 11 | 56 | 0.0 | 3.2 | 0.00 | 0.00 | 0.00 | 72 | 1024.4 |
| 20260502010023 | 11 | 244 | 0.0 | 1.6 | 0.00 | 0.00 | 0.00 | 73 | 1024.3 |
| 20260502004519 | 11 | 243 | 0.0 | 0.0 | 0.00 | 0.00 | 0.00 | 75 | 1024.3 |
| 20260502003023 | 11 | 243 | 0.0 | 0.0 | 0.00 | 0.00 | 0.00 | 76 | 1024.4 |
| 20260502001517 | 11 | 243 | 0.0 | 0.0 | 0.00 | 0.00 | 0.00 | 72 | 1024.6 |
| 20260502000015 | 11 | 243 | 0.0 | 0.0 | 0.00 | 0.00 | 0.00 | 70 | 1024.6 |
| 20260501234515 | 11 | 243 | 0.0 | 1.6 | 0.00 | 0.00 | 0.00 | 72 | 1024.6 |
| 20260501233013 | 11 | 205 | 0.0 | 0.0 | 0.00 | 0.00 | 0.00 | 75 | 1024.7 |